1316044831257,4.58799
1316044891257,4.58692
1316044951257,4.54338
1316045011257,4.56517
1316045071257,4.59686
1316045131257,4.59867
1316045191257,4.55840
1316045251257,4.56925
1316045311257,4.60180
1316045371257,4.58354
1316045431257,4.58554
1316045491257,4.55235
1316045551257,4.56595
1316045611257,4.54618
1316045671257,4.55537
1316045731257,4.56774
1316045791257,4.53994
1316045851257,4.56043
1316045911257,4.52980
1316045971257,4.55552
1316046031257,4.54983
1316046091257,4.56227
1316046151257,4.52813
1316046211257,4.56584
1316046271257,4.57533
1316046331257,4.60101
1316046391257,4.68192
1316046451257,4.79331
1316046511257,4.95468
1316046571257,4.97919
1316046631257,4.97561
1316046691257,4.89925
1316046751257,4.79154
1316046811257,4.72087
1316046871257,4.70315
1316046931257,4.64792
1316046991257,4.66086
1316047051257,4.58365
1316047111257,4.59165
1316047171257,4.59887
1316047231257,4.58389
1316047291257,4.57373
1316047351257,4.59371
1316047411257,4.57337
1316047471257,4.56896
1316047531257,4.56005
1316047591257,4.55019
1316047651257,4.57962
1316047711257,4.54251
1316047771257,4.54696
1316047831257,4.55989
1316047891257,4.58635
1316047951257,4.55578
1316048011257,4.56962
1316048071257,4.55823
1316048131257,4.54137
1316048191257,4.52934
1316048251257,4.53329
1316048311257,4.54083
1316048371257,4.59208
1316048431269,4.53949
1316048491269,4.51435
1316048551269,4.52554
1316048611269,4.55490
1316048671269,4.52843
1316048731269,4.54186
1316048791269,4.55733
1316048851269,4.54006
1316048911269,4.53961
1316048971269,4.56378
1316049031269,4.55654
1316049091269,4.52938
1316049151269,4.54968
1316049211269,4.49116
1316049271269,4.55833
1316049331269,4.53502
1316049391269,4.55467
1316049451269,4.54144
1316049511269,4.54395
1316049571269,4.56271
1316049631269,4.53194
1316049691269,4.58298
1316049751269,4.63094
1316049811269,4.61540
1316049871269,4.64261
1316049931269,4.61582
1316049991269,4.63637
1316050051269,4.60533
1316050111269,4.65651
1316050171269,4.75186
1316050231269,4.61636
1316050291269,4.64645
1316050351269,4.62138
1316050411269,4.61082
1316050471269,4.59123
1316050531269,4.60778
1316050591269,4.56665
1316050651269,4.56166
1316050711269,4.58547
1316050771269,4.56012
1316050831269,4.55500
1316050891269,4.57564
1316050951269,4.56014
1316051011269,4.56435
1316051071269,4.53803
1316051131269,4.54059
1316051191269,4.51777
1316051251269,4.55852
1316051311269,4.52940
1316051371269,4.52967
1316051431269,4.53006
1316051491269,4.49257
1316051551269,4.54226
1316051611269,4.50252
1316051671269,4.54121
1316051731269,4.52432
1316051791269,4.52434
1316051851269,4.50199
1316051911269,4.52844
1316051971269,4.53887
1316052031280,4.52003
1316052091280,4.51787
1316052151280,4.56463
1316052211280,4.59783
1316052271280,4.56691
1316052331280,4.55704
1316052391280,4.60123
1316052451280,4.57931
1316052511280,4.61288
1316052571280,4.64207
1316052631280,4.63648
1316052691280,4.62798
1316052751280,4.61423
1316052811280,4.57853
1316052871280,4.61034
1316052931280,4.55466
1316052991280,4.52964
1316053051280,4.56441
1316053111280,4.51349
1316053171280,4.53602
1316053231280,4.53789
1316053291280,4.53465
1316053351280,4.52154
1316053411280,4.48656
1316053471280,4.48209
1316053531280,4.49380
1316053591280,4.53059
1316053651280,4.52095
1316053711280,4.56773
1316053771280,4.55577
1316053831280,4.55989
1316053891280,4.54865
1316053951280,4.46909
1316054011280,4.47914
1316054071280,4.56354
1316054131280,4.52291
1316054191280,4.52735
1316054251280,4.54701
1316054311280,4.50412
1316054371280,4.55428
1316054431280,4.52340
1316054491280,4.53492
1316054551280,4.52840
1316054611280,4.59954
1316054671280,4.61810
1316054731280,4.69571
1316054791280,4.71479
1316054851280,4.77042
1316054911280,4.66600
1316054971280,4.61472
1316055031280,4.62497
1316055091280,4.55538
1316055151280,4.55901
1316055211280,4.55933
1316055271280,4.54221
1316055331280,4.56083
1316055391280,4.53692
1316055451280,4.53989
1316055511280,4.51726
1316055571280,4.51300
1316055631291,4.49156
1316055691291,4.43357
1316055751291,4.47833
1316055811291,4.48710
1316055871291,4.48576
1316055931291,4.49370
1316055991291,4.46964
1316056051291,4.56364
1316056111291,4.59092
1316056171291,4.53012
1316056231291,4.59490
1316056291291,4.55081
1316056351291,4.51886
1316056411291,4.51048
1316056471291,4.50153
1316056531291,4.51749
1316056591291,4.49138
1316056651291,4.49281
1316056711291,4.50211
1316056771291,4.51018
1316056831291,4.47825
1316056891291,4.48492
1316056951291,4.49020
1316057011291,4.50576
1316057071291,4.45321
1316057131291,4.49387
1316057191291,4.46822
1316057251291,4.48660
1316057311291,4.50327
1316057371291,4.45168
1316057431291,4.45732
1316057491291,4.47066
1316057551291,4.44589
1316057611291,4.47120
1316057671291,4.47382
1316057731291,4.44582
1316057791291,4.46313
1316057851291,4.46552
1316057911291,4.44145
1316057971291,4.46510
1316058031291,4.43512
1316058091291,4.45913
1316058151291,4.46375
1316058211291,4.50052
1316058271291,4.48475
1316058331291,4.47313
1316058391291,4.47209
1316058451291,4.46123
1316058511291,4.48756
1316058571291,4.47520
1316058631291,4.46570
1316058691291,4.47200
1316058751291,4.47348
1316058811291,4.43065
1316058871291,4.45019
1316058931291,4.45579
1316058991291,4.46021
1316059051291,4.43652
1316059111291,4.48277
1316059171291,4.46878
1316059231303,4.45880
1316059291303,4.46995
1316059351303,4.46121
1316059411303,4.46930
1316059471303,4.47058
1316059531303,4.47395
1316059591303,4.42371
1316059651303,4.46030
1316059711303,4.43958
1316059771303,4.47445
1316059831303,4.46622
1316059891303,4.43662
1316059951303,4.45142
1316060011303,4.44011
1316060071303,4.47880
1316060131303,4.45812
1316060191303,4.45992
1316060251303,4.48426
1316060311303,4.43786
1316060371303,4.44804
1316060431303,4.42530
1316060491303,4.43943
1316060551303,4.44054
1316060611303,4.44528
1316060671303,4.46756
1316060731303,4.45974
1316060791303,4.43941
1316060851303,4.45322
1316060911303,4.42001
1316060971303,4.40148
1316061031303,4.43304
1316061091303,4.50411
1316061151303,4.52772
1316061211303,4.55683
1316061271303,4.49773
1316061331303,4.49443
1316061391303,4.48680
1316061451303,4.49418
1316061511303,4.49567
1316061571303,4.47473
1316061631303,4.48403
1316061691303,4.49785
1316061751303,4.49081
1316061811303,4.45746
1316061871303,4.49644
1316061931303,4.46144
1316061991303,4.48031
1316062051303,4.51391
1316062111303,4.46065
1316062171303,4.48885
1316062231303,4.47079
1316062291303,4.46687
1316062351303,4.47297
1316062411303,4.50961
1316062471303,4.47443
1316062531303,4.47844
1316062591303,4.43866
1316062651303,4.43275
1316062711303,4.47300
1316062771303,4.47338
1316062831314,4.45698
1316062891314,4.45864
1316062951314,4.51262
1316063011314,4.44081
1316063071314,4.47465
1316063131314,4.47908
1316063191314,4.46659
1316063251314,4.45949
1316063311314,4.46051
1316063371314,4.45619
1316063431314,4.45181
1316063491314,4.49392
1316063551314,4.45344
1316063611314,4.51523
1316063671314,4.47508
1316063731314,4.48830
1316063791314,4.48818
1316063851314,4.46215
1316063911314,4.47418
1316063971314,4.47998
1316064031314,4.45462
1316064091314,4.45140
1316064151314,4.48159
1316064211314,4.46907
1316064271314,4.50644
1316064331314,4.47561
1316064391314,4.45586
1316064451314,4.48563
1316064511314,4.47658
1316064571314,4.47997
1316064631314,4.49886
1316064691314,4.58203
1316064751314,4.53856
1316064811314,4.49523
1316064871314,4.47043
1316064931314,4.45869
1316064991314,4.49257
1316065051314,4.49233
1316065111314,4.48655
1316065171314,4.49673
1316065231314,4.48504
1316065291314,4.46055
1316065351314,4.49468
1316065411314,4.48895
1316065471314,4.51043
1316065531314,4.46730
1316065591314,4.50193
1316065651314,4.45948
1316065711314,4.51131
1316065771314,4.47584
1316065831314,4.51557
1316065891314,4.49491
1316065951314,4.52418
1316066011314,4.47605
1316066071314,4.52817
1316066131314,4.51614
1316066191314,4.45379
1316066251314,4.48455
1316066311314,4.48702
1316066371314,4.50397
1316066431325,4.46321
1316066491325,4.49065
1316066551325,4.49083
1316066611325,4.50229
1316066671325,4.48842
1316066731325,4.46087
1316066791325,4.47909
1316066851325,4.52668
1316066911325,4.50151
1316066971325,4.51673
1316067031325,4.49913
1316067091325,4.48838
1316067151325,4.48879
1316067211325,4.50756
1316067271325,4.51055
1316067331325,4.47754
1316067391325,4.51513
1316067451325,4.51094
1316067511325,4.50906
1316067571325,4.51944
1316067631325,4.52713
1316067691325,4.48099
1316067751325,4.51847
1316067811325,4.52586
1316080111358,4.55060
1316080171358,4.47001
1316080231358,4.48884
1316080291358,4.46396
1316080351358,4.46967
1316080411358,4.49092
1316080471358,4.51096
1316080531358,4.50219
1316080591358,4.49450
1316080651358,4.50549
1316080711358,4.51521
1316080771358,4.48445
1316080831370,4.52891
1316080891370,4.51936
1316080951370,4.49687
1316081011370,4.48507
1316081071370,4.52984
1316081131370,4.51495
1316081191370,4.54081
1316081251370,4.49210
1316081311370,4.56267
1316081371370,4.49585
1316081431370,4.52594
1316081491370,4.55370
1316081551370,4.55742
1316081611370,4.49414
1316081671370,4.54242
1316081731370,4.51468
1316081791370,4.53056
1316081851370,4.59289
1316081911370,4.52353
1316081971370,4.53492
1316082031370,4.50890
1316082091370,4.52632
1316082151370,4.54587
1316082211370,4.52871
1316082271370,4.54651
1316082331370,4.54294
1316082391370,4.55291
1316082451370,4.51854
1316082511370,4.55430
1316082571370,4.55431
1316082631370,4.53669
1316082691370,4.54191
1316082751370,4.52129
1316082811370,4.53450
1316082871370,4.53727
1316082931370,4.57768
1316082991370,4.54618
1316083051370,4.55694
1316083111370,4.50677
1316083171370,4.52728
1316083231370,4.56504
1316083291370,4.53544
1316083351370,4.53564
1316083411370,4.56199
1316083471370,4.53860
1316083531370,4.53620
1316083591370,4.56089
1316083651370,4.58050
1316083711370,4.55847
1316083771370,4.58681
1316083831370,4.54855
1316083891370,4.57855
1316083951370,4.57306
1316084011370,4.56628
1316084071370,4.52622
1316084131370,4.54637
1316084191370,4.57707
1316084251370,4.61978
1316084311370,4.63641
1316084371370,4.68577
1316084431382,4.63119
1316084491382,4.61562
1316084551382,4.60564
1316084611382,4.58556
1316084671382,4.60603
1316084731382,4.59345
1316084791382,4.60759
1316084851382,4.60491
1316084911382,4.57451
1316084971382,4.56277
1316085031382,4.60658
1316085091382,4.58639
1316085151382,4.62864
1316085211382,4.63577
1316085271382,4.55090
1316085331382,4.59866
1316085391382,4.57948
1316085451382,4.60458
1316085511382,4.59995
1316085571382,4.58864
1316085631382,4.59179
1316085691382,4.57287
1316085751382,4.58003
1316085811382,4.60481
1316085871382,4.62396
1316085931382,4.63612
1316085991382,4.54953
1316086051382,4.59167
1316086111382,4.59428
1316086171382,4.58978
1316086231382,4.56180
1316086291382,4.59825
1316086351382,4.57136
1316086411382,4.59577
1316086471382,4.59553
1316086531382,4.57817
1316086591382,4.57599
1316086651382,4.59417
1316086711382,4.59317
1316086771382,4.58619
1316086831382,4.60113
1316086891382,4.57155
1316086951382,4.61321
1316087011382,4.61014
1316087071382,4.59887
1316087131382,4.58465
1316087191382,4.60220
1316087251382,4.58361
1316087311382,4.64357
1316087371382,4.61096
1316087431382,4.57496
1316087491382,4.61039
1316087551382,4.61737
1316087611382,4.58357
1316087671382,4.57436
1316087731382,4.60805
1316087791382,4.60143
1316087851382,4.62097
1316087911382,4.58048
1316087971382,4.61702
1316088031395,4.61915
1316088091395,4.60232
1316088151395,4.55966
1316088211395,4.60873
1316088271395,4.58298
1316088331395,4.59298
1316088391395,4.61593
1316088451395,4.58282
1316088511395,4.57020
1316088571395,4.56593
1316088631395,4.60798
1316088691395,4.61128
1316088751395,4.59552
1316088811395,4.59512
1316088871395,4.62830
1316088931395,4.56774
1316088991395,4.57541
1316089051395,4.55080
1316089111395,4.53969
1316089171395,4.57721
1316089231395,4.55878
1316089291395,4.60198
1316089351395,4.58353
1316089411395,4.56175
1316089471395,4.56430
1316089531395,4.61253
1316089591395,4.57147
1316089651395,4.62230
1316089711395,4.59260
1316089771395,4.60091
1316089831395,4.60501
1316089891395,4.59608
1316089951395,4.63772
1316090011395,4.59386
1316090071395,4.60667
1316090131395,4.64893
1316090191395,4.62576
1316090251395,4.63166
1316090311395,4.66252
1316090371395,4.64478
1316090431395,4.60518
1316090491395,4.59999
1316090551395,4.63952
1316090611395,4.65936
1316090671395,4.65810
1316090731395,4.69587
1316090791395,4.68076
1316090851395,4.61982
1316090911395,4.66279
1316090971395,4.65537
1316091031395,4.63241
1316091091395,4.64734
1316091151395,4.60790
1316091211395,4.64802
1316091271395,4.61801
1316091331395,4.62623
1316091391395,4.63065
1316091451395,4.61682
1316091511395,4.57569
1316091571395,4.62134
1316091631408,4.60478
1316091691408,4.60976
1316091751408,4.58096
1316091811408,4.63741
1316091871408,4.60948
1316091931408,4.61672
1316091991408,4.59433
1316092051408,4.59817
1316092111408,4.60009
1316092171408,4.61674
1316092231408,4.61554
1316092291408,4.59700
1316092351408,4.59386
1316092411408,4.62366
1316092471408,4.61925
1316092531408,4.62980
1316092591408,4.65772
1316092651408,4.61724
1316092711408,4.61819
1316092771408,4.63973
1316092831408,4.59427
1316092891408,4.58779
1316092951408,4.62926
1316093011408,4.61013
1316093071408,4.63888
1316093131408,4.63973
1316093191408,4.63773
1316093251408,4.62969
1316093311408,4.64654
1316093371408,4.60671
1316093431408,4.64055
1316093491408,4.56624
1316093551408,4.60544
1316093611408,4.63016
1316093671408,4.61708
1316093731408,4.61724
1316093791408,4.58732
1316093851408,4.60734
1316093911408,4.65614
1316093971408,4.64456
1316094031408,4.65776
1316094091408,4.60245
1316094151408,4.60877
1316094211408,4.59642
1316094271408,4.57869
1316094331408,4.61298
1316094391408,4.60901
1316094451408,4.58095
1316094511408,4.61270
1316094571408,4.60631
1316094631408,4.61078
1316094691408,4.62079
1316094751408,4.61987
1316094811408,4.61901
1316094871408,4.58879
1316094931408,4.57745
1316094991408,4.58679
1316095051408,4.62056
1316095111408,4.60101
1316095171408,4.62940
1316095231421,4.59060
1316095291421,4.62298
1316095351420,4.61411
1316095411420,4.59011
1316095471420,4.61787
1316095531421,4.60435
1316095591421,4.60467
1316095651421,4.62782
1316095711421,4.61141
1316095771421,4.58913
1316095831421,4.60510
1316095891421,4.62737
1316095951421,4.62291
1316096011421,4.60903
1316096071421,4.60011
1316096131421,4.62803
1316096191421,4.60728
1316096251421,4.63139
1316096311421,4.63686
1316096371421,4.63813
1316096431421,4.61692
1316096491421,4.58165
1316096551421,4.63193
1316096611421,4.60592
1316096671421,4.61032
1316096731420,4.62580
1316096791420,4.64764
1316096851421,4.64202
1316096911421,4.64461
1316096971421,4.60996
1316097031421,4.65640
1316097091421,4.58315
1316097151421,4.60881
1316097211421,4.59011
1316097271421,4.62992
1316097331421,4.64620
1316097391421,4.61938
1316097451421,4.64403
1316097511421,4.64139
1316097571421,4.62293
1316097631421,4.65876
1316097691421,4.61078
1316097751421,4.61658
1316097811421,4.61239
1316097871421,4.58132
1316097931421,4.60022
1316097991421,4.60483
1316098051420,4.63006
1316098111420,4.64432
1316098171420,4.57884
1316098231421,4.60338
1316098291421,4.58274
1316098351421,4.62244
1316098411421,4.63651
1316098471421,4.59663
1316098531421,4.62518
1316098591421,4.59344
1316098651421,4.62974
1316098711421,4.67327
1316098771421,4.63168
1316098831434,4.62135
1316098891434,4.61327
1316098951434,4.63910
1316099011434,4.59917
1316099071434,4.62688
1316099131434,4.64697
1316099191434,4.63009
1316099251434,4.60919
1316099311434,4.66050
1316099371434,4.61993
1316099431434,4.58998
1316099491434,4.60830
1316099551434,4.60700
1316099611434,4.65414
1316099671434,4.61854
1316099731434,4.63077
1316099791434,4.60529
1316099851434,4.59400
1316099911434,4.63407
1316099971434,4.66411
1316100031434,4.62600
1316100091434,4.65752
1316100151434,4.63560
1316100211434,4.64006
1316100271434,4.64305
1316100331434,4.65134
1316100391434,4.67596
1316100451434,4.63125
1316100511434,4.66116
1316100571434,4.62780
1316100631434,4.63327
1316100691434,4.66131
1316100751434,4.66132
1316100811434,4.66886
1316100871434,4.65834
1316100931434,4.64360
1316100991434,4.67087
1316101051434,4.69143
1316101111434,4.69979
1316101171434,4.67737
1316101231434,4.68080
1316101291434,4.67616
1316101351434,4.64381
1316101411434,4.67114
1316101471434,4.64378
1316101531434,4.68112
1316101591434,4.67008
1316101651434,4.67740
1316101711434,4.66455
1316101771434,4.65582
1316101831434,4.66520
1316101891434,4.66680
1316101951434,4.67989
1316102011434,4.65407
1316102071434,4.65364
1316102131434,4.68664
1316102191434,4.66456
1316102251434,4.64261
1316102311434,4.63473
1316102371434,4.65704
1316102431447,4.63141
1316102491447,4.65646
1316102551447,4.62260
1316102611447,4.65890
1316102671447,4.62055
1316102731447,4.61079
1316102791447,4.61703
1316102851447,4.64868
1316102911447,4.62782
1316102971447,4.65318
1316103031447,4.64607
1316103091447,4.64543
1316103151447,4.65740
1316103211447,4.65426
1316103271447,4.62049
1316103331447,4.66201
1316103391447,4.66273
1316103451447,4.61112
1316103511447,4.61129
1316103571447,4.66145
1316103631447,4.72068
1316103691447,4.76000
1316103751447,4.83528
1316103811447,4.91429
1316103871447,4.96435
1316103931447,4.95934
1316103991447,5.05662
1316104051447,5.04345
1316104111447,4.95840
1316104171447,4.94981
1316104231447,4.94157
1316104291447,4.95135
1316104351447,4.91864
1316104411447,4.88452
1316104471447,4.84665
1316104531447,4.83264
1316104591447,4.80910
1316104651447,4.81637
1316104711447,4.77569
1316104771447,4.78532
1316104831447,4.80889
1316104891447,4.80733
1316104951447,4.75549
1316105011447,4.82906
1316105071447,4.75720
1316105131447,4.74845
1316105191447,4.73912
1316105251447,4.71446
1316105311447,4.71573
1316105371447,4.74793
1316105431447,4.72257
1316105491447,4.67285
1316105551447,4.69585
1316105611447,4.72110
1316105671447,4.70499
1316105731447,4.72446
1316105791447,4.70229
1316105851447,4.70175
1316105911447,4.71556
1316105971447,4.70497
1316106031461,4.71010
1316106091461,4.70020
1316106151461,4.70768
1316106211461,4.73459
1316106271461,4.69127
1316106331461,4.69987
1316106391461,4.70062
1316106451461,4.69504
1316106511461,4.69531
1316106571461,4.71405
1316106631461,4.73820
1316106691461,4.70530
1316106751461,4.72268
1316106811461,4.71221
1316106871461,4.71348
1316106931461,4.73792
1316106991461,4.70748
1316107051461,4.73284
1316107111461,4.72881
1316107171461,4.69260
1316107231461,4.73310
1316107291461,4.69942
1316107351461,4.66288
1316107411461,4.68780
1316107471461,4.71259
1316107531461,4.72227
1316107591461,4.69458
1316107651461,4.69282
1316107711461,4.69853
1316107771461,4.72542
1316107831461,4.73374
1316107891461,4.73343
1316107951461,4.75582
1316108011461,4.68811
1316108071461,4.71276
1316108131461,4.69192
1316108191461,4.69100
1316108251461,4.73265
1316108311461,4.71115
1316108371461,4.68706
1316108431461,4.71479
1316108491461,4.68401
1316108551461,4.70544
1316108611461,4.70696
1316108671461,4.73069
1316108731461,4.70988
1316108791461,4.69847
1316108851461,4.70712
1316108911461,4.70367
1316108971461,4.66592
1316109031461,4.69371
1316109091461,4.73563
1316109151461,4.69487
1316109211461,4.66725
1316109271461,4.70224
1316109331461,4.65248
1316109391461,4.68908
1316109451461,4.69100
1316109511461,4.71939
1316109571461,4.69967
1316109631474,4.69345
1316109691474,4.68572
1316109751474,4.66723
1316109811474,4.68596
1316109871474,4.68946
1316109931474,4.71714
1316109991474,4.66312
1316110051474,4.67220
1316110111474,4.66556
1316110171474,4.67662
1316110231474,4.66549
1316110291474,4.66141
1316110351474,4.65359
1316110411474,4.66405
1316110471474,4.66427
1316110531474,4.61124
1316110591474,4.65019
1316110651474,4.63718
1316110711474,4.66859
1316110771474,4.67297
1316110831474,4.69915
1316110891474,4.65250
1316110951474,4.65179
1316111011474,4.68254
1316111071474,4.61419
1316111131474,4.64630
1316111191474,4.59523
1316111251474,4.65380
1316111311474,4.65852
1316111371474,4.70364
1316111431474,4.67861
1316111491474,4.67491
1316111551474,4.71616
1316111611474,4.68839
1316111671474,4.70590
1316111731474,4.66751
1316111791474,4.66192
1316111851474,4.68201
1316111911474,4.66246
1316111971474,4.66686
1316112031474,4.63420
1316112091474,4.66793
1316112151474,4.64590
1316112211474,4.62488
1316112271474,4.60387
1316112331474,4.62409
1316112391474,4.59223
1316112451474,4.61089
1316112511474,4.62529
1316112571474,4.61564
1316112631474,4.63891
1316112691474,4.64585
1316112751474,4.64528
1316112811474,4.61438
1316112871474,4.63974
1316112931474,4.63501
1316112991474,4.64463
1316113051474,4.62012
1316113111474,4.62655
1316113171474,4.62418
1316113231488,4.61464
1316113291488,4.61653
1316113351488,4.62195
1316113411488,4.59629
1316113471488,4.57170
1316113531488,4.59708
1316113591488,4.64447
1316113651488,4.63363
1316113711488,4.60823
1316113771488,4.61321
1316113831488,4.58941
1316113891488,4.59704
1316114431488,4.59540
1316114491488,4.62617
1316114551488,4.62717
1316114611488,4.61366
1316114671488,4.62030
1316114731488,4.61610
1316114791488,4.60251
1316114851488,4.64133
1316114911488,4.61710
1316114971488,4.61161
1316115031488,4.63194
1316115091488,4.61488
1316115151488,4.62861
1316115211488,4.66804
1316115271488,4.60157
1316115331488,4.61458
1316115391488,4.61972
1316115451488,4.63140
1316115511488,4.62524
1316115571488,4.62297
1316115631488,4.64919
1316115691488,4.62227
1316115751488,4.61358
1316115811488,4.61544
1316115871488,4.57659
1316115931488,4.60272
1316115991488,4.62831
1316116051488,4.56171
1316116111488,4.61555
1316116171488,4.59434
1316116231488,4.61436
1316116291488,4.59518
1316116351488,4.58633
1316116411488,4.60164
1316116471488,4.59107
1316116531488,4.58205
1316116591488,4.58348
1316116651488,4.56953
1316116711488,4.58002
1316116771488,4.60686
1316116831502,4.62985
1316116891502,4.60032
1316116951502,4.59380
1316117011502,4.62856
1316117071502,4.62659
1316117131502,4.63303
1316117191502,4.56845
1316117251502,4.60290
1316117311502,4.63292
1316117371502,4.64979
1316117431501,4.61497
1316117491502,4.57056
1316117551502,4.63550
1316117611502,4.61034
1316117671502,4.62454
1316117731502,4.56879
1316117791502,4.59467
1316117851502,4.58720
1316117911502,4.62883
1316117971502,4.62774
1316118031502,4.60814
1316118091502,4.59072
1316118151502,4.61344
1316118211502,4.62073
1316118271502,4.58840
1316118331502,4.62131
1316118391502,4.62472
1316118451502,4.61215
1316118511502,4.64694
1316118571502,4.64311
1316118631502,4.60508
1316118691502,4.63131
1316118751502,4.64763
1316118811501,4.65752
1316118871502,4.63263
1316118931502,4.72105
1316118991502,4.70861
1316119051502,4.69089
1316119111502,4.69411
1316119171502,4.72475
1316119231502,4.69895
1316119291502,4.68812
1316119351502,4.65068
1316119411502,4.64396
1316119471502,4.62322
1316119531502,4.60310
1316119591502,4.62996
1316119651502,4.61412
1316119711502,4.60919
1316119771502,4.65486
1316119831502,4.62251
1316119891502,4.61854
1316119951502,4.60818
1316120011502,4.62168
1316120071502,4.60178
1316120131501,4.64494
1316120191502,4.63222
1316120251502,4.61667
1316120311502,4.58655
1316120371502,4.58398
1316120431515,4.58651
1316120491515,4.59783
1316120551515,4.62676
1316120611515,4.61002
1316120671515,4.59050
1316120731515,4.64924
1316120791515,4.59469
1316120851515,4.64950
1316120911515,4.57950
1316120971515,4.61414
1316121031515,4.61164
1316121091515,4.66028
1316121151515,4.72876
1316121211515,4.82612
1316121271515,4.89044
1316121331515,4.86332
1316121391515,4.83142
1316121451515,4.77624
1316121511515,4.75174
1316121571515,4.71230
1316121631515,4.71281
1316121691515,4.68843
1316121751515,4.74237
1316121811515,4.73689
1316121871515,4.71730
1316121931515,4.75983
1316121991515,4.75290
1316122051515,4.71306
1316122111515,4.68203
1316122171515,4.70181
1316122231515,4.72805
1316122291515,4.67986
1316122351515,4.69281
1316122411515,4.72139
1316122471515,4.66311
1316122531515,4.70247
1316122591515,4.68292
1316122651515,4.66706
1316122711515,4.65836
1316122771515,4.66587
1316122831515,4.68374
1316122891515,4.63307